Weather History for Grove, OK

Change the Weather History Date:

Monday, July 29, 2013

  Actual Average (KSLG) Record (KSLG)
Temperature  
Mean Temperature 78 °F -  
Max Temperature 87 °F 87 °F 107 °F (2012)
Min Temperature 68 °F 67 °F 57 °F (2005)
Cooling Degree Days 12    
Growing Degree Days 28 (Base 50)    
Moisture  
Dew Point 71 °F    
Average Humidity 80    
Maximum Humidity 100    
Minimum Humidity 58    
Precipitation  
Precipitation 0.00 in - - ()
Sea Level Pressure  
Sea Level Pressure 30.02 in    
Wind  
Wind Speed 4 mph (SE)    
Max Wind Speed 17 mph    
Max Gust Speed 21 mph    
Visibility 9 miles    
Events Rain , Thunderstorm    
Averages and records for this station are not official NWS values.
T = Trace of Precipitation, MM = Missing Value Source: NWS Daily Summary

Daily Weather History Graph

Daily Weather History Graph

Search for Another Location

Airport:

Trip Planner

Search our weather history database for the weather conditions in past years. The results will help you decide how hot, cold, wet, or windy it might be!

Date:

Astronomy

Jul. 29, 2013 Rise Set
Actual Time 6:22 AM CDT 8:27 PM CDT
Civil Twilight 5:54 AM CDT 8:56 PM CDT
Nautical Twilight 5:18 AM CDT 9:31 PM CDT
Astronomical Twilight 4:41 AM CDT 10:08 PM CDT
Moon 12:03 AM CDT (7/29) 1:51 PM CDT (7/29)
Length of Visible Light 15h 02m
Length of Day
14h 04m
Waning Gibbous, 50% of the Moon is Illuminated
Jul 29
Waning Gibbous
Jul 29
Last Quarter
Aug 6
New
Aug 14
First Quarter
Aug 20
Full

Hourly Weather History & Observations

Time (CDT) Temp. Heat Index Dew Point Humidity Pressure Visibility Wind Dir Wind Speed Gust Speed Precip Events Conditions
12:15 AM 69.8 °F - 64.4 °F 83% 30.05 in 10.0 mi ENE 3.5 mph - N/A   Clear
12:35 AM 69.8 °F - 64.4 °F 83% 30.05 in 10.0 mi Calm Calm - N/A   Clear
12:55 AM 69.8 °F - 64.4 °F 83% 30.05 in 10.0 mi Calm Calm - N/A   Clear
1:15 AM 69.8 °F - 64.4 °F 83% 30.05 in 10.0 mi Calm Calm - N/A   Clear
1:35 AM 69.8 °F - 64.4 °F 83% 30.05 in 10.0 mi Calm Calm - N/A   Scattered Clouds
1:55 AM 69.8 °F - 64.4 °F 83% 30.04 in 10.0 mi East 3.5 mph - N/A   Scattered Clouds
2:15 AM 69.8 °F - 64.4 °F 83% 30.04 in 10.0 mi Calm Calm - N/A   Clear
2:55 AM 69.8 °F - 64.4 °F 83% 30.04 in 10.0 mi Calm Calm - N/A   Clear
3:15 AM 69.8 °F - 64.4 °F 83% 30.05 in 10.0 mi Calm Calm - N/A   Clear
3:35 AM 69.8 °F - 64.4 °F 83% 30.05 in 10.0 mi Calm Calm - N/A   Clear
3:55 AM 69.8 °F - 64.4 °F 83% 30.04 in 10.0 mi Calm Calm - N/A   Clear
4:15 AM 69.8 °F - 64.4 °F 83% 30.04 in 10.0 mi Calm Calm - N/A   Clear
4:35 AM 68.0 °F - 64.4 °F 88% 30.05 in 10.0 mi Calm Calm - N/A   Clear
4:55 AM 68.0 °F - 64.4 °F 88% 30.05 in 10.0 mi Calm Calm - N/A   Clear
5:15 AM 68.0 °F - 64.4 °F 88% 30.05 in 10.0 mi Calm Calm - N/A   Clear
5:35 AM 68.0 °F - 68.0 °F 100% 30.05 in 10.0 mi Calm Calm - N/A   Clear
5:55 AM 68.0 °F - 68.0 °F 100% 30.05 in 10.0 mi Calm Calm - N/A   Clear
6:15 AM 68.0 °F - 68.0 °F 100% 30.05 in 10.0 mi Calm Calm - N/A   Clear
6:35 AM 68.0 °F - 68.0 °F 100% 30.05 in 10.0 mi Calm Calm - N/A   Clear
6:55 AM 68.0 °F - 68.0 °F 100% 30.05 in 10.0 mi Calm Calm - N/A   Clear
7:15 AM 69.8 °F - 69.8 °F 100% 30.05 in 10.0 mi Calm Calm - N/A   Clear
7:35 AM 71.6 °F - 71.6 °F 100% 30.05 in 10.0 mi East 3.5 mph - N/A   Mostly Cloudy
7:55 AM 73.4 °F - 71.6 °F 94% 30.06 in 10.0 mi Calm Calm - N/A   Overcast
8:15 AM 73.4 °F - 73.4 °F 100% 30.07 in 1.8 mi South 8.1 mph - N/A Rain Heavy Rain
8:35 AM 71.6 °F - 71.6 °F 100% 30.07 in 4.0 mi Calm Calm - N/A Rain Light Rain
8:55 AM 71.6 °F - 71.6 °F 100% 30.07 in 7.0 mi North 3.5 mph - N/A   Overcast
9:15 AM 71.6 °F - 71.6 °F 100% 30.06 in 7.0 mi ENE 4.6 mph - N/A   Overcast
9:35 AM 75.2 °F - 75.2 °F 100% 30.06 in 7.0 mi ENE 3.5 mph - N/A   Scattered Clouds
9:55 AM 75.2 °F - 75.2 °F 100% 30.06 in 10.0 mi ENE 3.5 mph - N/A   Clear
10:15 AM 77.0 °F - 77.0 °F 100% 30.06 in 10.0 mi ESE 3.5 mph - N/A   Clear
10:35 AM 80.6 °F 85.4 °F 73.4 °F 79% 30.05 in 10.0 mi SSE 6.9 mph - N/A   Clear
10:55 AM 82.4 °F 87.2 °F 71.6 °F 70% 30.05 in 10.0 mi SSE 12.7 mph - N/A   Clear
11:15 AM 82.4 °F 87.2 °F 71.6 °F 70% 30.05 in 10.0 mi SSE 9.2 mph - N/A   Scattered Clouds
11:35 AM 86.0 °F 93.4 °F 73.4 °F 66% 30.05 in 10.0 mi SSE 9.2 mph - N/A   Scattered Clouds
11:55 AM 86.0 °F 91.8 °F 71.6 °F 62% 30.04 in 10.0 mi SSE 15.0 mph 18.4 mph N/A   Scattered Clouds
12:15 PM 86.0 °F 91.8 °F 71.6 °F 62% 30.04 in 10.0 mi South 10.4 mph - N/A   Scattered Clouds
12:35 PM 87.8 °F 95.6 °F 73.4 °F 62% 30.03 in 10.0 mi SSE 10.4 mph - N/A   Scattered Clouds
12:55 PM 86.0 °F 91.8 °F 71.6 °F 62% 30.03 in 10.0 mi SSE 12.7 mph - N/A   Scattered Clouds
1:15 PM 87.8 °F 95.6 °F 73.4 °F 62% 30.03 in 10.0 mi South 13.8 mph 20.7 mph N/A   Mostly Cloudy
1:35 PM 87.8 °F 95.6 °F 73.4 °F 62% 30.03 in 10.0 mi SSE 15.0 mph - N/A   Scattered Clouds
1:55 PM 86.0 °F 91.8 °F 71.6 °F 62% 30.03 in 10.0 mi South 13.8 mph 19.6 mph N/A   Scattered Clouds
2:15 PM 86.0 °F 91.8 °F 71.6 °F 62% 30.03 in 10.0 mi South 13.8 mph - N/A   Scattered Clouds
2:35 PM 86.0 °F 91.8 °F 71.6 °F 62% 30.02 in 10.0 mi SSE 13.8 mph 18.4 mph N/A   Scattered Clouds
2:55 PM 87.8 °F 95.6 °F 73.4 °F 62% 30.01 in 10.0 mi South 16.1 mph 19.6 mph N/A   Scattered Clouds
3:15 PM 86.0 °F 91.8 °F 71.6 °F 62% 30.01 in 10.0 mi SSE 16.1 mph 20.7 mph N/A   Scattered Clouds
3:35 PM 86.0 °F 93.4 °F 73.4 °F 66% 30.01 in 10.0 mi SSE 9.2 mph 18.4 mph N/A   Mostly Cloudy
3:55 PM 87.8 °F 95.6 °F 73.4 °F 62% 30.00 in 10.0 mi SSE 16.1 mph - N/A   Mostly Cloudy
4:15 PM 86.0 °F 91.8 °F 71.6 °F 62% 29.99 in 10.0 mi South 10.4 mph - N/A   Scattered Clouds
4:35 PM 87.8 °F 93.8 °F 71.6 °F 58% 29.99 in 10.0 mi South 11.5 mph - N/A   Mostly Cloudy
4:55 PM 87.8 °F 93.8 °F 71.6 °F 58% 29.99 in 10.0 mi South 17.3 mph - N/A   Mostly Cloudy
5:15 PM 86.0 °F 91.8 °F 71.6 °F 62% 30.00 in 10.0 mi SSE 10.4 mph - N/A   Scattered Clouds
5:35 PM 86.0 °F 91.8 °F 71.6 °F 62% 29.99 in 10.0 mi SSE 10.4 mph - N/A   Mostly Cloudy
5:55 PM 84.2 °F 89.6 °F 71.6 °F 66% 29.98 in 10.0 mi SSE 10.4 mph - N/A   Scattered Clouds
6:15 PM 84.2 °F 89.6 °F 71.6 °F 66% 29.98 in 10.0 mi SSE 10.4 mph - N/A   Clear
6:35 PM 84.2 °F 89.6 °F 71.6 °F 66% 29.98 in 10.0 mi SSE 8.1 mph - N/A   Clear
6:55 PM 82.4 °F 87.2 °F 71.6 °F 70% 29.98 in 10.0 mi SSE 9.2 mph - N/A   Scattered Clouds
7:15 PM 82.4 °F 87.2 °F 71.6 °F 70% 29.98 in 10.0 mi SSE 6.9 mph - N/A   Scattered Clouds
7:35 PM 82.4 °F 87.2 °F 71.6 °F 70% 29.97 in 10.0 mi SE 9.2 mph - N/A   Scattered Clouds
7:55 PM 82.4 °F 87.2 °F 71.6 °F 70% 29.97 in 10.0 mi SSE 10.4 mph - N/A   Mostly Cloudy
8:15 PM 82.4 °F 87.2 °F 71.6 °F 70% 29.98 in 10.0 mi SE 6.9 mph - N/A   Mostly Cloudy
8:35 PM 82.4 °F 87.2 °F 71.6 °F 70% 29.99 in 10.0 mi SE 4.6 mph - N/A   Mostly Cloudy
8:55 PM 80.6 °F 85.4 °F 73.4 °F 79% 29.98 in 10.0 mi SE 4.6 mph - N/A   Mostly Cloudy
9:15 PM 82.4 °F 87.2 °F 71.6 °F 70% 29.98 in 10.0 mi SE 5.8 mph - N/A   Overcast
9:35 PM 78.8 °F - 75.2 °F 89% 29.99 in 7.0 mi ESE 4.6 mph - N/A Rain Rain
9:55 PM 78.8 °F - 77.0 °F 94% 29.98 in 7.0 mi ESE 5.8 mph - N/A Rain Light Rain
10:15 PM 78.8 °F - 78.8 °F 100% 29.99 in 7.0 mi SE 6.9 mph - N/A   Overcast
10:35 PM 78.8 °F - 78.8 °F 100% 29.99 in 10.0 mi ESE 5.8 mph - N/A   Mostly Cloudy
10:55 PM 77.0 °F - 77.0 °F 100% 29.99 in 7.0 mi ESE 5.8 mph - N/A   Mostly Cloudy
11:15 PM 77.0 °F - 77.0 °F 100% 29.98 in 7.0 mi ESE 8.1 mph - N/A Rain Light Rain
11:35 PM 77.0 °F - 77.0 °F 100% 29.99 in 7.0 mi ESE 4.6 mph - N/A Thunderstorm Unknown
11:55 PM 77.0 °F - 77.0 °F 100% 30.00 in 4.0 mi NNE 3.5 mph - N/A Rain Rain